When you browse on this site, cookies collect data to enhance your experience and personalize the content and advertising you see.
Visit our Privacy Policy to learn more. By continuing to use the site, you agree to this use of cookies and data.
  • In United Kingdom
  • List of Countries
  • For 7 days
  • Water Temperature
  • Satellite Maps
  • Weather Map
  • Weather Widgets
  • user-avatar
    Login

    Hourly Weather Kakata

    Today, 24 July, Wednesday

    Time Temperature Precipitation Wind Pressure Humidity
    00:00 +24°C° 0.1 mm 1 mps 753 mmHg 92%
    01:00 +24°C° 0.1 mm 1 mps 753 mmHg 92%
    02:00 +24°C° 0.1 mm 1 mps 752 mmHg 92%
    03:00 +24°C° 0.1 mm 1 mps 752 mmHg 93%
    04:00 +24°C° 0.1 mm 1 mps 753 mmHg 93%
    05:00 +24°C° 0.1 mm 1 mps 753 mmHg 94%
    06:00 +25°C° 0.1 mm 1 mps 753 mmHg 90%
    07:00 +26°C° 0.1 mm 1 mps 753 mmHg 87%
    08:00 +27°C° 0.1 mm 1 mps 753 mmHg 83%
    09:00 +28°C° 0.1 mm 1 mps 754 mmHg 77%
    10:00 +29°C° 0.1 mm 1 mps 754 mmHg 71%
    11:00 +30°C° 0.1 mm 2 mps 754 mmHg 66%
    12:00 +31°C° 0.1 mm 2 mps 753 mmHg 64%
    13:00 +31°C° 0.1 mm 2 mps 752 mmHg 62%
    14:00 +31°C° 0.1 mm 2 mps 752 mmHg 60%
    15:00 +30°C° 0.1 mm 2 mps 752 mmHg 66%
    16:00 +29°C° 0.1 mm 3 mps 751 mmHg 71%
    17:00 +28°C° 0.1 mm 3 mps 751 mmHg 76%
    18:00 +27°C° 0 mm 2 mps 752 mmHg 82%
    19:00 +25°C° 0 mm 1 mps 753 mmHg 88%
    20:00 +24°C° 0 mm 1 mps 753 mmHg 93%
    21:00 +24°C° 0 mm 1 mps 753 mmHg 93%
    22:00 +24°C° 0 mm 1 mps 754 mmHg 93%
    23:00 +24°C° 0 mm 1 mps 754 mmHg 94%

    Tomorrow, 25 July, Thursday

    Time Temperature Precipitation Wind Pressure Humidity
    00:00 +24°C° 0.1 mm 1 mps 754 mmHg 93%
    01:00 +24°C° 0.1 mm 1 mps 753 mmHg 92%
    02:00 +25°C° 0.1 mm 1 mps 753 mmHg 92%
    03:00 +25°C° 0.1 mm 1 mps 753 mmHg 92%
    04:00 +24°C° 0.1 mm 1 mps 753 mmHg 92%
    05:00 +24°C° 0.1 mm 1 mps 753 mmHg 92%
    06:00 +25°C° 0 mm 1 mps 754 mmHg 89%
    07:00 +26°C° 0 mm 1 mps 754 mmHg 87%
    08:00 +26°C° 0 mm 1 mps 755 mmHg 84%
    09:00 +27°C° 0.1 mm 1 mps 754 mmHg 79%
    10:00 +28°C° 0.1 mm 1 mps 754 mmHg 73%
    11:00 +29°C° 0.1 mm 1 mps 754 mmHg 67%
    12:00 +29°C° 0.5 mm 2 mps 754 mmHg 70%
    13:00 +29°C° 0.5 mm 2 mps 753 mmHg 72%
    14:00 +29°C° 0.5 mm 2 mps 753 mmHg 75%
    15:00 +28°C° 0.3 mm 2 mps 752 mmHg 77%
    16:00 +27°C° 0.3 mm 2 mps 752 mmHg 80%
    17:00 +27°C° 0.3 mm 2 mps 752 mmHg 82%
    18:00 +26°C° 0 mm 2 mps 753 mmHg 85%
    19:00 +25°C° 0 mm 1 mps 753 mmHg 89%
    20:00 +24°C° 0 mm 1 mps 754 mmHg 92%
    21:00 +24°C° 0 mm 1 mps 754 mmHg 93%
    22:00 +24°C° 0 mm 1 mps 755 mmHg 94%
    23:00 +24°C° 0 mm 1 mps 755 mmHg 95%

    Day after tomorrow, 26 July, Friday

    Time Temperature Precipitation Wind Pressure Humidity
    00:00 +23°C° 0 mm 1 mps 754 mmHg 95%
    01:00 +21°C° 0 mm 0 mps 754 mmHg 96%
    02:00 +21°C° 0 mm 0 mps 754 mmHg 96%
    03:00 +21°C° 0 mm 0 mps 754 mmHg 96%
    04:00 +21°C° 0 mm 0 mps 754 mmHg 96%
    05:00 +21°C° 0 mm 0 mps 753 mmHg 96%
    06:00 +22°C° 0 mm 0 mps 754 mmHg 91%
    07:00 +25°C° 0 mm 1 mps 754 mmHg 87%
    08:00 +26°C° 0 mm 1 mps 755 mmHg 83%
    09:00 +27°C° 0.2 mm 1 mps 755 mmHg 81%
    10:00 +27°C° 0.2 mm 1 mps 755 mmHg 80%
    11:00 +28°C° 0.2 mm 1 mps 755 mmHg 79%
    12:00 +28°C° 0.4 mm 1 mps 754 mmHg 80%
    13:00 +28°C° 0.4 mm 2 mps 753 mmHg 82%
    14:00 +27°C° 0.4 mm 2 mps 753 mmHg 84%
    15:00 +27°C° 0.2 mm 2 mps 752 mmHg 84%
    16:00 +27°C° 0.2 mm 2 mps 752 mmHg 84%
    17:00 +27°C° 0.2 mm 3 mps 752 mmHg 84%
    18:00 +26°C° 0.1 mm 2 mps 753 mmHg 87%
    19:00 +26°C° 0.1 mm 2 mps 753 mmHg 90%
    20:00 +25°C° 0.1 mm 1 mps 754 mmHg 93%
    21:00 +25°C° 0.1 mm 1 mps 754 mmHg 94%
    22:00 +25°C° 0.1 mm 1 mps 754 mmHg 94%
    23:00 +25°C° 0.1 mm 1 mps 754 mmHg 94%

    27 July, Saturday

    Time Temperature Precipitation Wind Pressure Humidity
    00:00 +25°C° 0.1 mm 1 mps 754 mmHg 95%
    01:00 +25°C° 0.1 mm 1 mps 754 mmHg 95%
    02:00 +25°C° 0.1 mm 1 mps 753 mmHg 96%
    03:00 +25°C° 0.6 mm 1 mps 753 mmHg 96%
    04:00 +25°C° 0.6 mm 1 mps 753 mmHg 96%
    05:00 +25°C° 0.6 mm 1 mps 753 mmHg 96%
    06:00 +25°C° 0.4 mm 1 mps 754 mmHg 95%
    07:00 +25°C° 0.4 mm 1 mps 754 mmHg 94%
    08:00 +26°C° 0.4 mm 1 mps 754 mmHg 92%
    09:00 +26°C° 1.6 mm 2 mps 754 mmHg 90%
    10:00 +27°C° 1.6 mm 2 mps 754 mmHg 89%
    11:00 +28°C° 1.6 mm 3 mps 754 mmHg 87%
    12:00 +27°C° 2 mm 3 mps 753 mmHg 88%
    13:00 +27°C° 2 mm 3 mps 753 mmHg 88%
    14:00 +27°C° 2 mm 3 mps 752 mmHg 89%
    15:00 +26°C° 0.9 mm 3 mps 752 mmHg 91%
    16:00 +26°C° 0.9 mm 3 mps 752 mmHg 92%
    17:00 +25°C° 0.9 mm 2 mps 752 mmHg 93%
    18:00 +25°C° 0.2 mm 2 mps 752 mmHg 94%
    19:00 +25°C° 0.2 mm 2 mps 753 mmHg 95%
    20:00 +25°C° 0.2 mm 2 mps 754 mmHg 95%
    21:00 +25°C° 0.1 mm 2 mps 754 mmHg 95%
    22:00 +25°C° 0.1 mm 2 mps 754 mmHg 95%
    23:00 +25°C° 0.1 mm 2 mps 754 mmHg 95%

    28 July, Sunday

    Time Temperature Precipitation Wind Pressure Humidity
    00:00 +25°C° 0.3 mm 2 mps 753 mmHg 96%
    01:00 +25°C° 0.3 mm 2 mps 753 mmHg 96%
    02:00 +24°C° 0.3 mm 2 mps 753 mmHg 96%
    03:00 +24°C° 0.2 mm 2 mps 753 mmHg 95%
    04:00 +24°C° 0.2 mm 2 mps 753 mmHg 95%
    05:00 +24°C° 0.2 mm 2 mps 753 mmHg 95%
    06:00 +25°C° 0.3 mm 2 mps 753 mmHg 95%
    07:00 +25°C° 0.3 mm 2 mps 753 mmHg 95%
    08:00 +25°C° 0.3 mm 2 mps 754 mmHg 94%
    09:00 +25°C° 0.5 mm 2 mps 754 mmHg 94%
    10:00 +25°C° 0.5 mm 2 mps 754 mmHg 93%
    11:00 +25°C° 0.5 mm 2 mps 754 mmHg 93%
    12:00 +25°C° 0.5 mm 2 mps 753 mmHg 92%
    13:00 +25°C° 0.5 mm 2 mps 753 mmHg 92%
    14:00 +25°C° 0.5 mm 3 mps 752 mmHg 92%
    15:00 +25°C° 0.2 mm 2 mps 752 mmHg 93%
    16:00 +25°C° 0.2 mm 2 mps 752 mmHg 94%
    17:00 +24°C° 0.2 mm 2 mps 752 mmHg 95%
    18:00 +24°C° 0.2 mm 2 mps 753 mmHg 95%
    19:00 +24°C° 0.2 mm 1 mps 753 mmHg 95%
    20:00 +24°C° 0.2 mm 1 mps 754 mmHg 95%
    21:00 +24°C° 0 mm 1 mps 754 mmHg 95%
    22:00 +24°C° 0 mm 1 mps 754 mmHg 95%
    23:00 +24°C° 0 mm 1 mps 754 mmHg 95%

    29 July, Monday

    Time Temperature Precipitation Wind Pressure Humidity
    00:00 +24°C° 0.1 mm 1 mps 754 mmHg 95%
    01:00 +24°C° 0.1 mm 1 mps 754 mmHg 95%
    02:00 +24°C° 0.1 mm 1 mps 753 mmHg 95%
    03:00 +24°C° 0.1 mm 1 mps 753 mmHg 95%
    04:00 +24°C° 0.1 mm 1 mps 753 mmHg 95%
    05:00 +24°C° 0.1 mm 1 mps 753 mmHg 95%
    06:00 +24°C° 0 mm 1 mps 753 mmHg 94%
    07:00 +25°C° 0 mm 1 mps 754 mmHg 92%
    08:00 +25°C° 0 mm 1 mps 754 mmHg 91%
    09:00 +26°C° 0.2 mm 2 mps 754 mmHg 87%
    10:00 +27°C° 0.2 mm 2 mps 754 mmHg 83%
    11:00 +28°C° 0.2 mm 2 mps 754 mmHg 79%
    12:00 +28°C° 0.3 mm 3 mps 753 mmHg 79%
    13:00 +27°C° 0.3 mm 3 mps 753 mmHg 80%
    14:00 +27°C° 0.3 mm 3 mps 752 mmHg 81%
    15:00 +27°C° 0.1 mm 3 mps 752 mmHg 83%
    16:00 +26°C° 0.1 mm 2 mps 752 mmHg 85%
    17:00 +25°C° 0.1 mm 2 mps 752 mmHg 87%
    18:00 +25°C° 0 mm 2 mps 753 mmHg 88%
    19:00 +25°C° 0 mm 2 mps 753 mmHg 90%
    20:00 +24°C° 0 mm 1 mps 754 mmHg 91%
    21:00 +24°C° 0.1 mm 1 mps 754 mmHg 92%
    22:00 +24°C° 0.1 mm 1 mps 754 mmHg 92%
    23:00 +24°C° 0.1 mm 1 mps 754 mmHg 93%
    Show more